Regional Weather Roundup
Issued by NWS

Home | Current Version | Previous Version | Text Only | Print | Product List | Glossary On
Versions: 1 2 3 4 5 6 7 8 9 10 11 12 13 14 15 16 17 18 19 20 21 22 23 24 25 26 27 28 29 30 31 32 33 34 35 36 37 38 39 40 41 42 43 44 45 46 47 48 49 50
000
ASUS44 KFWD 240315
RWRTX
NORTH TEXAS HOURLY WEATHER ROUNDUP
NATIONAL WEATHER SERVICE FORT WORTH TX
1000 PM CDT TUE MAY 23 2017

NOTE: "FAIR" INDICATES FEW OR NO CLOUDS BELOW 12,000 FEET WITH NO
SIGNIFICANT WEATHER AND/OR OBSTRUCTIONS TO VISIBILITY.

TXZ118-119-240400-
DALLAS/FORT WORTH METROPLEX

CITY           SKY/WX    TMP DP  RH WIND       PRES   REMARKS
DFW AIRPORT    PTCLDY    63  52  67 W13       29.90R
DALLAS LOVE    CLEAR     63  52  67 NW10      29.91R
FTW MEACHAM    CLEAR     61  53  75 W9        29.92R
DAL-EXECUTIVE  CLEAR     60  52  74 NW10      29.91R
FTW-ALLIANCE   CLEAR     59  51  75 W7        29.92R
FTW-NAS-JRB    CLEAR     60  51  72 NW7       29.93R
FTW-SPINKS     CLEAR     60  51  72 W7        29.95R
ARLINGTON      CLEAR     61  51  70 W8        29.92R
GRAND PRAIRIE  CLEAR     62  49  63 W7        29.93R
ADDISON        CLEAR     61  52  72 W6        29.92R
MESQUITE       CLEAR     62  51  67 NW10      29.90R
LANCASTER      CLEAR     60  51  72 NW8       29.92R
$$

TXZ091>094-102>105-117-120-121-131>134-240400-
NORTH CENTRAL TEXAS

CITY           SKY/WX    TMP DP  RH WIND       PRES   REMARKS
SHRMAN/DENISON CLEAR     57  52  85 CALM      29.90S
GAINESVILLE    CLEAR     57  50  78 CALM      29.92S
BOWIE          CLEAR     58  52  80 W5        29.93R
BRIDGEPORT     PTCLDY    57  50  76 SW5       29.95S
DECATUR        CLEAR     59  51  73 W6        29.93R
DENTON         CLEAR     56  52  86 W8        29.91R
MCKINNEY       PTCLDY    60  53  77 NW7       29.90R
BONHAM         CLOUDY    59  52  77 W5        29.88R
GREENVILLE     PTCLDY    64  55  72 NW6       29.89R
ROCKWALL       PTCLDY    62  52  70 N7        29.90R
TERRELL        PTCLDY    62  52  69 NW9       29.89R
WAXAHACHIE     CLEAR     59  53  79 W8        29.94R
CLEBURNE       CLEAR     57  55  94 NW7       29.96R
GRANBURY       CLEAR     58  52  81 W3        29.96F
$$

TXZ083>090-098>101-113>116-127>130-139>142-154-155-240400-
WESTERN NORTH TEXAS

CITY           SKY/WX    TMP DP  RH WIND       PRES   REMARKS
WICHITA FALLS  CLEAR     62  43  49 NW9       29.92S
WF-KICKAPOO    CLEAR     64  44  48 N6        29.95S
VERNON         CLEAR     61  45  55 NW5       29.96R
ABILENE          N/A     54  51  90 SW5       30.00S
ABILENE-DYESS  CLEAR     56  51  81 SW6       29.99S
GRAHAM           N/A     56  51  84 CALM      29.94S
BRECKENRIDGE   CLEAR     57  50  77 SW5       29.96F
CISCO          PTCLDY    54  50  87 W5        29.99S
EASTLAND       CLEAR     50  49  96 CALM      29.98S
RANGER         CLEAR     54  51  89 W5        29.98S
MINERAL WELLS  CLEAR     56  50  80 SW6       29.93F
STEPHENVILLE   CLEAR     57  51  80 CALM      29.99S
COMANCHE       CLEAR     54  51  89 MISG      29.99S
BROWNWOOD      PTCLDY    54  50  87 CALM      30.00S FOG
COLEMAN        CLEAR     55  48  76 W3        30.01S
$$

TXZ143>147-156>162-174-175-240400-
CENTRAL TEXAS

CITY           SKY/WX    TMP DP  RH WIND       PRES   REMARKS
WACO           CLEAR     58  54  86 W8        29.94R
WACO-MCGREGOR  CLEAR     58  54  86 NW8       29.95R
HILLSBORO      CLEAR     58  54  88 W5        29.94R
CORSICANA      CLEAR     60  56  86 W5        29.91R
MEXIA          CLEAR     59  55  84 W12       29.91R
HEARNE         CLEAR     61  61 100 NW7       29.92R
CAMERON        CLEAR     61  56  85 NW9       29.93R
TEMPLE         CLEAR     59  53  80 NW10      29.96R
KILLEEN        CLEAR     59  51  74 NW10      29.96R
KILLEEN-SKYLRK CLEAR     60  52  74 NW7       29.97R
FORT HOOD      CLEAR     58  52  80 NW9       29.93R
HAMILTON       CLEAR     57  50  76 NW10      29.99R
LAMPASAS       CLEAR     58  52  80 NW3       29.98R
$$

TXZ095>097-106>112-122>126-135>138-148>153-164>167-240400-
EAST TEXAS

CITY           SKY/WX    TMP DP  RH WIND       PRES   REMARKS
PARIS          CLOUDY    61  54  77 NW8       29.85S
SULPHUR SPRNGS MOCLDY    63  58  83 NW9       29.88R
MOUNT PLEASANT CLOUDY    62  60  93 NW7       29.86R
GILMER         RAIN      61  59  92 NW8       29.84R
MINEOLA        CLOUDY    64  57  77 N8        29.85S
TYLER          CLOUDY    63  61  93 NW12      29.85R
LONGVIEW       RAIN      64  63  96 NW14G22   29.82R
MARSHALL       CLOUDY    63  60  91 NW16      29.83R
ATHENS         CLEAR     59  59 100 NW5       29.87R
PALESTINE      CLEAR     61  60  96 W9        29.89R
JACKSONVILLE   CLEAR     62  61  96 NW12      29.86S
HENDERSON      CLOUDY    63  62  96 W7        29.84R
CENTER         CLOUDY    67  66  96 CALM      29.83R
NACOGDOCHES    CLOUDY    64  61  88 NW12      29.82R
LUFKIN         CLOUDY    64  62  93 NW7G20    29.83R
$$

SUPPLEMENTAL OBSERVATIONS (NWS FORT WORTH AREA)

CITY           SKY/WX    TMP DP  RH WIND       PRES   REMARKS
DENISON DAM      N/A     63  54  72 W9          N/A
CADDO GRASSLND   N/A     57  54  88 N2          N/A
PAT MAYSE LAKE   N/A     59  57  94 W3          N/A
GREENVILLE       N/A     61  52  72 NW5         N/A
CEDAR HILL       N/A     61  50  67 W2G13       N/A
LBJ GRASSLAND    N/A     57  50  77 SW1         N/A
POSSUM KINGDOM   N/A     57  50  77 SW3         N/A
GRANBURY         N/A     57  52  82 W5          N/A
COMANCHE         N/A     54  48  82 W7          N/A
MCGREGOR         N/A     57  52  82 W3          N/A
TEMPLE           N/A     61  52  72 NW5         N/A
LAKE LIMESTONE   N/A     61  57  88 NW6         N/A
ATHENS           N/A     61  55  82 NW2         N/A
$$

SUPPLEMENTAL OBSERVATIONS (NWS NORMAN AREA)

CITY           SKY/WX    TMP DP  RH WIND       PRES   REMARKS
GOODLETT         N/A     60  41  49 NW3       29.96R
ODELL            N/A     57  50  76 SW3       29.96S
CROWELL          N/A     60  46  59 NW2       29.97S
KNOX CITY        N/A     57  48  71 S5        29.98S
SEYMOUR          N/A     57  49  76 W2        29.96S
MILLERS CREEK    N/A     61  52  72 SW5         N/A
$$

SUPPLEMENTAL OBSERVATIONS (NWS SAN ANGELO AREA)

CITY           SKY/WX    TMP DP  RH WIND       PRES   REMARKS
WEINERT          N/A     59  48  67 CALM      29.97F
THROCKMORTON     N/A     58  52  81 SW5       29.98R
STAMFORD         N/A     59  55  85 S5        29.99S
CLYDE            N/A     53  49  86 SW6       30.01S
HAMBY            N/A     54  50  87 S3          N/A
IVIE RESERVOIR   N/A     59  48  67 W5          N/A
COLORADO BEND    N/A     55  46  71 CALM        N/A
$$

SUPPLEMENTAL OBSERVATIONS (NWS SHREVEPORT AREA)

CITY           SKY/WX    TMP DP  RH WIND       PRES   REMARKS
CLARKSVILLE      N/A     61  57  88 NW2         N/A
TEXARKANA        N/A     61  57  88 NW9G22      N/A
LINDEN           N/A     61  57  88 NW7G22      N/A
CADDO LAKE       N/A    N/A N/A N/A NW7G20      N/A
GILMER           N/A     63  57  82 N3G23       N/A
HENDERSON        N/A     64  61  88 NW9         N/A
LUFKIN           N/A     64  61  88 MISG        N/A
N SABINE NF      N/A     64  63  94 MISG        N/A
S SABINE NF      N/A     66  64  94 SW2         N/A
$$

SUPPLEMENTAL OBSERVATIONS ARE A COLLECTION OF AUTOMATED INSTRUMENTS
THAT ARE MAINTAINED BY A VARIETY OF FEDERAL AND STATE AGENCIES.
CERTAIN ELEMENTS...SUCH AS HUMIDITY VALUES AND SUSTAINED WIND
SPEEDS...MAY BE APPROXIMATED.




USA.gov is the U.S. government's official web portal to all federal, state and local government web resources and services.